Location: Unspecified
(0.0000°N, 0.0000°E)
Time: 13:38:32
(UTC+00:00)

deb Explorer IX - Pass Details

Date: 27 November 2019
Orbit: 545 x 1105 km, 38.8° (Epoch: 08 December)

Event Time Altitude Azimuth Distance (km) Brightness Sun altitude
Rises 19:09:08 0° 255° (WSW) 3,615 ? -18.9°
Reaches altitude 10° 19:12:06 10° 267° (W) 2,750 ? -19.6°
Maximum altitude 19:17:37 27° 322° (NW) 1,916 ? -20.9°
Enters shadow 19:22:14 14° 9° (N) 2,606 ? -22.0°
